Year,Month,Day,Hour,Minute,Value (Times are PST for temperature in C)
2016,03,30,00,00,6.50
2016,03,30,00,01,6.50
2016,03,30,00,02,6.50
2016,03,30,00,03,6.50
2016,03,30,00,04,6.50
2016,03,30,00,05,6.40
2016,03,30,00,06,6.40
2016,03,30,00,07,6.40
2016,03,30,00,08,6.30
2016,03,30,00,09,6.30
2016,03,30,00,10,6.30
2016,03,30,00,11,6.30
2016,03,30,00,12,6.20
2016,03,30,00,13,6.30
2016,03,30,00,14,6.30
2016,03,30,00,15,6.30
2016,03,30,00,16,6.30
2016,03,30,00,17,6.30
2016,03,30,00,18,6.30
2016,03,30,00,19,6.30
2016,03,30,00,20,6.30
2016,03,30,00,21,6.30
2016,03,30,00,22,6.30
2016,03,30,00,23,6.30
2016,03,30,00,24,6.30
2016,03,30,00,25,6.30
2016,03,30,00,26,6.30
2016,03,30,00,27,6.30
2016,03,30,00,28,6.20
2016,03,30,00,29,6.20
2016,03,30,00,30,6.20
2016,03,30,00,31,6.20
2016,03,30,00,32,6.20
2016,03,30,00,33,6.20
2016,03,30,00,34,6.20
2016,03,30,00,35,6.20
2016,03,30,00,36,6.20
2016,03,30,00,37,6.30
2016,03,30,00,38,6.30
2016,03,30,00,39,6.30
2016,03,30,00,40,6.30
2016,03,30,00,41,6.30
2016,03,30,00,42,6.30
2016,03,30,00,43,6.30
2016,03,30,00,44,6.20
2016,03,30,00,45,6.20
2016,03,30,00,46,6.10
2016,03,30,00,47,6.10
2016,03,30,00,48,6.10
2016,03,30,00,49,6.00
2016,03,30,00,50,6.00
2016,03,30,00,51,6.10
2016,03,30,00,52,6.10
2016,03,30,00,53,6.10
2016,03,30,00,54,6.20
2016,03,30,00,55,6.30
2016,03,30,00,56,6.40
2016,03,30,00,57,6.40
2016,03,30,00,58,6.40
2016,03,30,00,59,6.50
2016,03,30,01,00,6.40
2016,03,30,01,01,6.40
2016,03,30,01,02,6.40
2016,03,30,01,03,6.30
2016,03,30,01,04,6.30
2016,03,30,01,05,6.30
2016,03,30,01,06,6.20
2016,03,30,01,07,6.20
2016,03,30,01,08,6.20
2016,03,30,01,09,6.20
2016,03,30,01,10,6.20
2016,03,30,01,11,6.10
2016,03,30,01,12,6.10
2016,03,30,01,13,6.10
2016,03,30,01,14,6.10
2016,03,30,01,15,6.00
2016,03,30,01,16,6.00
2016,03,30,01,17,6.00
2016,03,30,01,18,5.90
2016,03,30,01,19,5.90
2016,03,30,01,20,5.90
2016,03,30,01,21,5.80
2016,03,30,01,22,5.80
2016,03,30,01,23,5.80
2016,03,30,01,24,5.80
2016,03,30,01,25,5.80
2016,03,30,01,26,5.80
2016,03,30,01,27,5.80
2016,03,30,01,28,5.80
2016,03,30,01,29,5.70
2016,03,30,01,30,5.70
2016,03,30,01,31,5.70
2016,03,30,01,32,5.70
2016,03,30,01,33,5.70
2016,03,30,01,34,5.60
2016,03,30,01,35,5.60
2016,03,30,01,36,5.60
2016,03,30,01,37,5.60
2016,03,30,01,38,5.60
2016,03,30,01,39,5.60
2016,03,30,01,40,5.60
2016,03,30,01,41,5.60
2016,03,30,01,42,5.60
2016,03,30,01,43,5.60
2016,03,30,01,44,5.60
2016,03,30,01,45,5.60
2016,03,30,01,46,5.60
2016,03,30,01,47,5.60
2016,03,30,01,48,5.60
2016,03,30,01,49,5.60
2016,03,30,01,50,5.60
2016,03,30,01,51,5.60
2016,03,30,01,52,5.70
2016,03,30,01,53,5.70
2016,03,30,01,54,5.70
2016,03,30,01,55,5.80
2016,03,30,01,56,5.80
2016,03,30,01,57,5.80
2016,03,30,01,58,5.80
2016,03,30,01,59,5.80
2016,03,30,02,00,5.80
2016,03,30,02,01,5.80
2016,03,30,02,02,5.80
2016,03,30,02,03,5.80
2016,03,30,02,04,5.80
2016,03,30,02,05,5.80
2016,03,30,02,06,5.80
2016,03,30,02,07,5.80
2016,03,30,02,08,5.80
2016,03,30,02,09,5.80
2016,03,30,02,10,5.80
2016,03,30,02,11,5.80
2016,03,30,02,12,5.80
2016,03,30,02,13,5.80
2016,03,30,02,14,5.80
2016,03,30,02,15,5.70
2016,03,30,02,16,5.70
2016,03,30,02,17,5.60
2016,03,30,02,18,5.60
2016,03,30,02,19,5.60
2016,03,30,02,20,5.50
2016,03,30,02,21,5.50
2016,03,30,02,22,5.40
2016,03,30,02,23,5.40
2016,03,30,02,24,5.40
2016,03,30,02,25,5.40
2016,03,30,02,26,5.40
2016,03,30,02,27,5.30
2016,03,30,02,28,5.40
2016,03,30,02,29,5.40
2016,03,30,02,30,5.40
2016,03,30,02,31,5.50
2016,03,30,02,32,5.50
2016,03,30,02,33,5.50
2016,03,30,02,34,5.50
2016,03,30,02,35,5.50
2016,03,30,02,36,5.40
2016,03,30,02,37,5.40
2016,03,30,02,38,5.40
2016,03,30,02,39,5.40
2016,03,30,02,40,5.40
2016,03,30,02,41,5.30
2016,03,30,02,42,5.30
2016,03,30,02,43,5.30
2016,03,30,02,44,5.30
2016,03,30,02,45,5.20
2016,03,30,02,46,5.20
2016,03,30,02,47,5.20
2016,03,30,02,48,5.20
2016,03,30,02,49,5.30
2016,03,30,02,50,5.30
2016,03,30,02,51,5.30
2016,03,30,02,52,5.30
2016,03,30,02,53,5.30
2016,03,30,02,54,5.30
2016,03,30,02,55,5.30
2016,03,30,02,56,5.40
2016,03,30,02,57,5.40
2016,03,30,02,58,5.40
2016,03,30,02,59,5.40
2016,03,30,03,00,5.40
2016,03,30,03,01,5.40
2016,03,30,03,02,5.40
2016,03,30,03,03,5.30
2016,03,30,03,04,5.30
2016,03,30,03,05,5.30
2016,03,30,03,06,5.30
2016,03,30,03,07,5.30
2016,03,30,03,08,5.30
2016,03,30,03,09,5.40
2016,03,30,03,10,5.40
2016,03,30,03,11,5.40
2016,03,30,03,12,5.40
2016,03,30,03,13,5.40
2016,03,30,03,14,5.40
2016,03,30,03,15,5.30
2016,03,30,03,16,5.30
2016,03,30,03,17,5.30
2016,03,30,03,18,5.20
2016,03,30,03,19,5.20
2016,03,30,03,20,5.20
2016,03,30,03,21,5.20
2016,03,30,03,22,5.20
2016,03,30,03,23,5.10
2016,03,30,03,24,5.10
2016,03,30,03,25,5.10
2016,03,30,03,26,5.10
2016,03,30,03,27,5.10
2016,03,30,03,28,5.20
2016,03,30,03,29,5.20
2016,03,30,03,30,5.20
2016,03,30,03,31,5.30
2016,03,30,03,32,5.30
2016,03,30,03,33,5.30
2016,03,30,03,34,5.30
2016,03,30,03,35,5.30
2016,03,30,03,36,5.30
2016,03,30,03,37,5.30
2016,03,30,03,38,5.30
2016,03,30,03,39,5.30
2016,03,30,03,40,5.30
2016,03,30,03,41,5.30
2016,03,30,03,42,5.40
2016,03,30,03,43,5.40
2016,03,30,03,44,5.40
2016,03,30,03,45,5.30
2016,03,30,03,46,5.30
2016,03,30,03,47,5.30
2016,03,30,03,48,5.30
2016,03,30,03,49,5.20
2016,03,30,03,50,5.20
2016,03,30,03,51,5.10
2016,03,30,03,52,5.10
2016,03,30,03,53,5.10
2016,03,30,03,54,5.10
2016,03,30,03,55,5.10
2016,03,30,03,56,5.10
2016,03,30,03,57,5.10
2016,03,30,03,58,5.10
2016,03,30,03,59,5.00
2016,03,30,04,00,5.00
2016,03,30,04,01,5.00
2016,03,30,04,02,5.00
2016,03,30,04,03,5.00
2016,03,30,04,04,5.00
2016,03,30,04,05,5.00
2016,03,30,04,06,5.00
2016,03,30,04,07,5.00
2016,03,30,04,08,5.00
2016,03,30,04,09,5.00
2016,03,30,04,10,5.00
2016,03,30,04,11,5.00
2016,03,30,04,12,5.10
2016,03,30,04,13,5.10
2016,03,30,04,14,5.10
2016,03,30,04,15,5.10
2016,03,30,04,16,5.10
2016,03,30,04,17,5.10
2016,03,30,04,18,5.10
2016,03,30,04,19,5.10
2016,03,30,04,20,5.10
2016,03,30,04,21,5.10
2016,03,30,04,22,5.00
2016,03,30,04,23,5.00
2016,03,30,04,24,5.00
2016,03,30,04,25,5.00
2016,03,30,04,26,4.90
2016,03,30,04,27,4.90
2016,03,30,04,28,4.90
2016,03,30,04,29,4.90
2016,03,30,04,30,4.90
2016,03,30,04,31,4.80
2016,03,30,04,32,4.80
2016,03,30,04,33,4.80
2016,03,30,04,34,4.80
2016,03,30,04,35,4.80
2016,03,30,04,36,4.80
2016,03,30,04,37,4.80
2016,03,30,04,38,4.80
2016,03,30,04,39,4.80
2016,03,30,04,40,4.80
2016,03,30,04,41,4.80
2016,03,30,04,42,4.80
2016,03,30,04,43,4.80
2016,03,30,04,44,4.80
2016,03,30,04,45,4.80
2016,03,30,04,46,4.80
2016,03,30,04,47,4.80
2016,03,30,04,48,4.80
2016,03,30,04,49,4.70
2016,03,30,04,50,4.70
2016,03,30,04,51,4.70
2016,03,30,04,52,4.70
2016,03,30,04,53,4.70
2016,03,30,04,54,4.70
2016,03,30,04,55,4.70
2016,03,30,04,56,4.70
2016,03,30,04,57,4.70
2016,03,30,04,58,4.70
2016,03,30,04,59,4.70
2016,03,30,05,00,4.70
2016,03,30,05,01,4.70
2016,03,30,05,02,4.70
2016,03,30,05,03,4.80
2016,03,30,05,04,4.80
2016,03,30,05,05,4.80
2016,03,30,05,06,4.80
2016,03,30,05,07,4.80
2016,03,30,05,08,4.80
2016,03,30,05,09,4.80
2016,03,30,05,10,4.80
2016,03,30,05,11,4.80
2016,03,30,05,12,4.80
2016,03,30,05,13,4.90
2016,03,30,05,14,4.90
2016,03,30,05,15,4.90
2016,03,30,05,16,4.80
2016,03,30,05,17,4.80
2016,03,30,05,18,4.80
2016,03,30,05,19,4.80
2016,03,30,05,20,4.80
2016,03,30,05,21,4.70
2016,03,30,05,22,4.70
2016,03,30,05,23,4.70
2016,03,30,05,24,4.70
2016,03,30,05,25,4.70
2016,03,30,05,26,4.70
2016,03,30,05,27,4.70
2016,03,30,05,28,4.70
2016,03,30,05,29,4.70
2016,03,30,05,30,4.70
2016,03,30,05,31,4.70
2016,03,30,05,32,4.70
2016,03,30,05,33,4.70
2016,03,30,05,34,4.70
2016,03,30,05,35,4.70
2016,03,30,05,36,4.70
2016,03,30,05,37,4.70
2016,03,30,05,38,4.70
2016,03,30,05,39,4.70
2016,03,30,05,40,4.70
2016,03,30,05,41,4.70
2016,03,30,05,42,4.60
2016,03,30,05,43,4.60
2016,03,30,05,44,4.60
2016,03,30,05,45,4.60
2016,03,30,05,46,4.60
2016,03,30,05,47,4.60
2016,03,30,05,48,4.60
2016,03,30,05,49,4.60
2016,03,30,05,50,4.60
2016,03,30,05,51,4.60
2016,03,30,05,52,4.60
2016,03,30,05,53,4.60
2016,03,30,05,54,4.60
2016,03,30,05,55,4.50
2016,03,30,05,56,4.50
2016,03,30,05,57,4.50
2016,03,30,05,58,4.50
2016,03,30,05,59,4.50
2016,03,30,06,00,4.50
2016,03,30,06,01,4.50
2016,03,30,06,02,4.50
2016,03,30,06,03,4.50
2016,03,30,06,04,4.60
2016,03,30,06,05,4.60
2016,03,30,06,06,4.60
2016,03,30,06,07,4.60
2016,03,30,06,08,4.60
2016,03,30,06,09,4.60
2016,03,30,06,10,4.60
2016,03,30,06,11,4.60
2016,03,30,06,12,4.50
2016,03,30,06,13,4.50
2016,03,30,06,14,4.40
2016,03,30,06,15,4.40
2016,03,30,06,16,4.40
2016,03,30,06,17,4.40
2016,03,30,06,18,4.30
2016,03,30,06,19,4.30
2016,03,30,06,20,4.30
2016,03,30,06,21,4.30
2016,03,30,06,22,4.30
2016,03,30,06,23,4.30
2016,03,30,06,24,4.30
2016,03,30,06,25,4.30
2016,03,30,06,26,4.30
2016,03,30,06,27,4.20
2016,03,30,06,28,4.20
2016,03,30,06,29,4.20
2016,03,30,06,30,4.20
2016,03,30,06,31,4.20
2016,03,30,06,32,4.20
2016,03,30,06,33,4.20
2016,03,30,06,34,4.20
2016,03,30,06,35,4.20
2016,03,30,06,36,4.20
2016,03,30,06,37,4.20
2016,03,30,06,38,4.20
2016,03,30,06,39,4.20
2016,03,30,06,40,4.30
2016,03,30,06,41,4.30
2016,03,30,06,42,4.30
2016,03,30,06,43,4.30
2016,03,30,06,44,4.30
2016,03,30,06,45,4.30
2016,03,30,06,46,4.30
2016,03,30,06,47,4.30
2016,03,30,06,48,4.30
2016,03,30,06,49,4.30
2016,03,30,06,50,4.30
2016,03,30,06,51,4.20
2016,03,30,06,52,4.20
2016,03,30,06,53,4.20
2016,03,30,06,54,4.20
2016,03,30,06,55,4.20
2016,03,30,06,56,4.20
2016,03,30,06,57,4.20
2016,03,30,06,58,4.20
2016,03,30,06,59,4.20
2016,03,30,07,00,4.20
2016,03,30,07,01,4.10
2016,03,30,07,02,4.10
2016,03,30,07,03,4.10
2016,03,30,07,04,4.10
2016,03,30,07,05,4.20
2016,03,30,07,06,4.20
2016,03,30,07,07,4.30
2016,03,30,07,08,4.30
2016,03,30,07,09,4.30
2016,03,30,07,10,4.30
2016,03,30,07,11,4.30
2016,03,30,07,12,4.30
2016,03,30,07,13,4.30
2016,03,30,07,14,4.30
2016,03,30,07,15,4.30
2016,03,30,07,16,4.30
2016,03,30,07,17,4.30
2016,03,30,07,18,4.30
2016,03,30,07,19,4.20
2016,03,30,07,20,4.20
2016,03,30,07,21,4.20
2016,03,30,07,22,4.20
2016,03,30,07,23,4.20
2016,03,30,07,24,4.20
2016,03,30,07,25,4.20
2016,03,30,07,26,4.20
2016,03,30,07,27,4.20
2016,03,30,07,28,4.20
2016,03,30,07,29,4.30
2016,03,30,07,30,4.30
2016,03,30,07,31,4.30
2016,03,30,07,32,4.30
2016,03,30,07,33,4.30
2016,03,30,07,34,4.30
2016,03,30,07,35,4.30
2016,03,30,07,36,4.30
2016,03,30,07,37,4.40
2016,03,30,07,38,4.40
2016,03,30,07,39,4.50
2016,03,30,07,40,4.60
2016,03,30,07,41,4.60
2016,03,30,07,42,4.70
2016,03,30,07,43,4.70
2016,03,30,07,44,4.70
2016,03,30,07,45,4.70
2016,03,30,07,46,4.70
2016,03,30,07,47,4.70
2016,03,30,07,48,4.70
2016,03,30,07,49,4.70
2016,03,30,07,50,4.80
2016,03,30,07,51,4.80
2016,03,30,07,52,4.80
2016,03,30,07,53,4.90
2016,03,30,07,54,5.00
2016,03,30,07,55,5.10
2016,03,30,07,56,5.20
2016,03,30,07,57,5.30
2016,03,30,07,58,5.40
2016,03,30,07,59,5.60
2016,03,30,08,00,5.70
2016,03,30,08,01,5.80
2016,03,30,08,02,5.80
2016,03,30,08,03,5.80
2016,03,30,08,04,5.80
2016,03,30,08,05,5.80
2016,03,30,08,06,5.80
2016,03,30,08,07,5.80
2016,03,30,08,08,5.90
2016,03,30,08,09,6.00
2016,03,30,08,10,6.10
2016,03,30,08,11,6.20
2016,03,30,08,12,6.30
2016,03,30,08,13,6.40
2016,03,30,08,14,6.50
2016,03,30,08,15,6.60
2016,03,30,08,16,6.70
2016,03,30,08,17,6.70
2016,03,30,08,18,6.80
2016,03,30,08,19,6.80
2016,03,30,08,20,6.90
2016,03,30,08,21,7.00
2016,03,30,08,22,7.00
2016,03,30,08,23,7.10
2016,03,30,08,24,7.10
2016,03,30,08,25,7.20
2016,03,30,08,26,7.20
2016,03,30,08,27,7.20
2016,03,30,08,28,7.30
2016,03,30,08,29,7.30
2016,03,30,08,30,7.40
2016,03,30,08,31,7.50
2016,03,30,08,32,7.60
2016,03,30,08,33,7.70
2016,03,30,08,34,7.70
2016,03,30,08,35,7.80
2016,03,30,08,36,7.90
2016,03,30,08,37,8.00
2016,03,30,08,38,8.00
2016,03,30,08,39,8.10
2016,03,30,08,40,8.20
2016,03,30,08,41,8.30
2016,03,30,08,42,8.40
2016,03,30,08,43,8.50
2016,03,30,08,44,8.60
2016,03,30,08,45,8.70
2016,03,30,08,46,8.80
2016,03,30,08,47,8.80
2016,03,30,08,48,8.90
2016,03,30,08,49,9.00
2016,03,30,08,50,9.00
2016,03,30,08,51,9.10
2016,03,30,08,52,9.20
2016,03,30,08,53,9.30
2016,03,30,08,54,9.40
2016,03,30,08,55,9.50
2016,03,30,08,56,9.60
2016,03,30,08,57,9.70
2016,03,30,08,58,9.70
2016,03,30,08,59,9.80
2016,03,30,09,00,9.90
2016,03,30,09,01,10.00
2016,03,30,09,02,10.00
2016,03,30,09,03,10.10
2016,03,30,09,04,10.20
2016,03,30,09,05,10.20
2016,03,30,09,06,10.30
2016,03,30,09,07,10.40
2016,03,30,09,08,10.50
2016,03,30,09,09,10.60
2016,03,30,09,10,10.70
2016,03,30,09,11,10.80
2016,03,30,09,12,10.80
2016,03,30,09,13,10.90
2016,03,30,09,14,11.00
2016,03,30,09,15,11.10
2016,03,30,09,16,11.20
2016,03,30,09,17,11.30
2016,03,30,09,18,11.30
2016,03,30,09,19,11.30
2016,03,30,09,20,11.40
2016,03,30,09,21,11.40
2016,03,30,09,22,11.50
2016,03,30,09,23,11.40
2016,03,30,09,24,11.40
2016,03,30,09,25,11.40
2016,03,30,09,26,11.40
2016,03,30,09,27,11.50
2016,03,30,09,28,11.50
2016,03,30,09,29,11.60
2016,03,30,09,30,11.60
2016,03,30,09,31,11.70
2016,03,30,09,32,11.80
2016,03,30,09,33,11.80
2016,03,30,09,34,11.90
2016,03,30,09,35,12.00
2016,03,30,09,36,12.10
2016,03,30,09,37,12.10
2016,03,30,09,38,12.20
2016,03,30,09,39,12.30
2016,03,30,09,40,12.30
2016,03,30,09,41,12.40
2016,03,30,09,42,12.50
2016,03,30,09,43,12.60
2016,03,30,09,44,12.70
2016,03,30,09,45,12.70
2016,03,30,09,46,12.80
2016,03,30,09,47,12.80
2016,03,30,09,48,12.90
2016,03,30,09,49,12.90
2016,03,30,09,50,12.90
2016,03,30,09,51,12.90
2016,03,30,09,52,12.90
2016,03,30,09,53,12.90
2016,03,30,09,54,12.90
2016,03,30,09,55,12.90
2016,03,30,09,56,12.90
2016,03,30,09,57,12.90
2016,03,30,09,58,12.90
2016,03,30,09,59,12.90
2016,03,30,10,00,12.90
2016,03,30,10,01,13.00
2016,03,30,10,02,13.00
2016,03,30,10,03,13.10
2016,03,30,10,04,13.20
2016,03,30,10,05,13.30
2016,03,30,10,06,13.40
2016,03,30,10,07,13.50
2016,03,30,10,08,13.60
2016,03,30,10,09,13.60
2016,03,30,10,10,13.70
2016,03,30,10,11,13.80
2016,03,30,10,12,13.90
2016,03,30,10,13,13.90
2016,03,30,10,14,14.00
2016,03,30,10,15,14.10
2016,03,30,10,16,14.10
2016,03,30,10,17,14.10
2016,03,30,10,18,14.20
2016,03,30,10,19,14.20
2016,03,30,10,20,14.30
2016,03,30,10,21,14.30
2016,03,30,10,22,14.30
2016,03,30,10,23,14.30
2016,03,30,10,24,14.40
2016,03,30,10,25,14.40
2016,03,30,10,26,14.40
2016,03,30,10,27,14.40
2016,03,30,10,28,14.40
2016,03,30,10,29,14.50
2016,03,30,10,30,14.50
2016,03,30,10,31,14.60
2016,03,30,10,32,14.60
2016,03,30,10,33,14.60
2016,03,30,10,34,14.70
2016,03,30,10,35,14.70
2016,03,30,10,36,14.70
2016,03,30,10,37,14.70
2016,03,30,10,38,14.70
2016,03,30,10,39,14.80
2016,03,30,10,40,14.80
2016,03,30,10,41,14.90
2016,03,30,10,42,14.80
2016,03,30,10,43,14.70
2016,03,30,10,44,14.60
2016,03,30,10,45,14.60
2016,03,30,10,46,14.70
2016,03,30,10,47,14.70
2016,03,30,10,48,14.70
2016,03,30,10,49,14.70
2016,03,30,10,50,14.80
2016,03,30,10,51,14.90
2016,03,30,10,52,15.00
2016,03,30,10,53,15.00
2016,03,30,10,54,15.00
2016,03,30,10,55,15.00
2016,03,30,10,56,15.00
2016,03,30,10,57,15.10
2016,03,30,10,58,15.20
2016,03,30,10,59,15.30
2016,03,30,11,00,15.40
2016,03,30,11,01,15.50
2016,03,30,11,02,15.50
2016,03,30,11,03,15.50
2016,03,30,11,04,15.50
2016,03,30,11,05,15.50
2016,03,30,11,06,15.50
2016,03,30,11,07,15.50
2016,03,30,11,08,15.50
2016,03,30,11,09,15.50
2016,03,30,11,10,15.40
2016,03,30,11,11,15.40
2016,03,30,11,12,15.40
2016,03,30,11,13,15.50
2016,03,30,11,14,15.50
2016,03,30,11,15,15.50
2016,03,30,11,16,15.60
2016,03,30,11,17,15.60
2016,03,30,11,18,15.70
2016,03,30,11,19,15.70
2016,03,30,11,20,15.80
2016,03,30,11,21,15.90
2016,03,30,11,22,15.90
2016,03,30,11,23,16.00
2016,03,30,11,24,16.00
2016,03,30,11,25,16.10
2016,03,30,11,26,16.20
2016,03,30,11,27,16.20
2016,03,30,11,28,16.20
2016,03,30,11,29,16.30
2016,03,30,11,30,16.20
2016,03,30,11,31,16.30
2016,03,30,11,32,16.30
2016,03,30,11,33,16.30
2016,03,30,11,34,16.30
2016,03,30,11,35,16.30
2016,03,30,11,36,16.30
2016,03,30,11,37,16.40
2016,03,30,11,38,16.40
2016,03,30,11,39,16.40
2016,03,30,11,40,16.40
2016,03,30,11,41,16.50
2016,03,30,11,42,16.50
2016,03,30,11,43,16.60
2016,03,30,11,44,16.70
2016,03,30,11,45,16.70
2016,03,30,11,46,16.70
2016,03,30,11,47,16.70
2016,03,30,11,48,16.70
2016,03,30,11,49,16.80
2016,03,30,11,50,16.80
2016,03,30,11,51,16.90
2016,03,30,11,52,17.00
2016,03,30,11,53,17.00
2016,03,30,11,54,16.90
2016,03,30,11,55,16.80
2016,03,30,11,56,16.90
2016,03,30,11,57,16.90
2016,03,30,11,58,16.90
2016,03,30,11,59,16.90
2016,03,30,12,00,16.90
2016,03,30,12,01,16.80
2016,03,30,12,02,16.80
2016,03,30,12,03,16.70
2016,03,30,12,04,16.70
2016,03,30,12,05,16.80
2016,03,30,12,06,16.70
2016,03,30,12,07,16.60
2016,03,30,12,08,16.50
2016,03,30,12,09,16.50
2016,03,30,12,10,16.50
2016,03,30,12,11,16.60
2016,03,30,12,12,16.80
2016,03,30,12,13,16.80
2016,03,30,12,14,16.90
2016,03,30,12,15,16.90
2016,03,30,12,16,17.00
2016,03,30,12,17,17.10
2016,03,30,12,18,17.20
2016,03,30,12,19,17.30
2016,03,30,12,20,17.40
2016,03,30,12,21,17.50
2016,03,30,12,22,17.60
2016,03,30,12,23,17.60
2016,03,30,12,24,17.60
2016,03,30,12,25,17.60
2016,03,30,12,26,17.60
2016,03,30,12,27,17.70
2016,03,30,12,28,17.80
2016,03,30,12,29,17.90
2016,03,30,12,30,17.90
2016,03,30,12,31,17.80
2016,03,30,12,32,17.80
2016,03,30,12,33,17.80
2016,03,30,12,34,17.90
2016,03,30,12,35,17.90
2016,03,30,12,36,18.00
2016,03,30,12,37,18.10
2016,03,30,12,38,18.10
2016,03,30,12,39,18.20
2016,03,30,12,40,18.20
2016,03,30,12,41,18.20
2016,03,30,12,42,18.20
2016,03,30,12,43,18.10
2016,03,30,12,44,18.00
2016,03,30,12,45,17.90
2016,03,30,12,46,17.90
2016,03,30,12,47,17.90
2016,03,30,12,48,18.00
2016,03,30,12,49,18.10
2016,03,30,12,50,18.20
2016,03,30,12,51,18.30
2016,03,30,12,52,18.40
2016,03,30,12,53,18.50
2016,03,30,12,54,18.60
2016,03,30,12,55,18.70
2016,03,30,12,56,18.70
2016,03,30,12,57,18.60
2016,03,30,12,58,18.50
2016,03,30,12,59,18.40
2016,03,30,13,00,18.30
2016,03,30,13,01,18.30
2016,03,30,13,02,18.40
2016,03,30,13,03,18.50
2016,03,30,13,04,18.50
2016,03,30,13,05,18.60
2016,03,30,13,06,18.60
2016,03,30,13,07,18.60
2016,03,30,13,08,18.50
2016,03,30,13,09,18.50
2016,03,30,13,10,18.40
2016,03,30,13,11,18.40
2016,03,30,13,12,18.30
2016,03,30,13,13,18.30
2016,03,30,13,14,18.30
2016,03,30,13,15,18.30
2016,03,30,13,16,18.30
2016,03,30,13,17,18.30
2016,03,30,13,18,18.30
2016,03,30,13,19,18.30
2016,03,30,13,20,18.30
2016,03,30,13,21,18.30
2016,03,30,13,22,18.30
2016,03,30,13,23,18.40
2016,03,30,13,24,18.50
2016,03,30,13,25,18.60
2016,03,30,13,26,18.70
2016,03,30,13,27,18.70
2016,03,30,13,28,18.80
2016,03,30,13,29,18.90
2016,03,30,13,30,18.90
2016,03,30,13,31,19.00
2016,03,30,13,32,19.00
2016,03,30,13,33,19.10
2016,03,30,13,34,19.10
2016,03,30,13,35,19.20
2016,03,30,13,36,19.30
2016,03,30,13,37,19.40
2016,03,30,13,38,19.40
2016,03,30,13,39,19.40
2016,03,30,13,40,19.30
2016,03,30,13,41,19.20
2016,03,30,13,42,19.20
2016,03,30,13,43,19.20
2016,03,30,13,44,19.20
2016,03,30,13,45,19.20
2016,03,30,13,46,19.20
2016,03,30,13,47,19.20
2016,03,30,13,48,19.30
2016,03,30,13,49,19.30
2016,03,30,13,50,19.20
2016,03,30,13,51,19.30
2016,03,30,13,52,19.30
2016,03,30,13,53,19.40
2016,03,30,13,54,19.50
2016,03,30,13,55,19.50
2016,03,30,13,56,19.60
2016,03,30,13,57,19.60
2016,03,30,13,58,19.60
2016,03,30,13,59,19.60
2016,03,30,14,00,19.60
2016,03,30,14,01,19.70
2016,03,30,14,02,19.80
2016,03,30,14,03,19.90
2016,03,30,14,04,19.90
2016,03,30,14,05,20.00
2016,03,30,14,06,20.00
2016,03,30,14,07,20.00
2016,03,30,14,08,20.00
2016,03,30,14,09,20.00
2016,03,30,14,10,20.00
2016,03,30,14,11,20.00
2016,03,30,14,12,20.00
2016,03,30,14,13,20.10
2016,03,30,14,14,20.20
2016,03,30,14,15,20.20
2016,03,30,14,16,20.20
2016,03,30,14,17,20.30
2016,03,30,14,18,20.30
2016,03,30,14,19,20.30
2016,03,30,14,20,20.30
2016,03,30,14,21,20.30
2016,03,30,14,22,20.40
2016,03,30,14,23,20.40
2016,03,30,14,24,20.40
2016,03,30,14,25,20.50
2016,03,30,14,26,20.50
2016,03,30,14,27,20.40
2016,03,30,14,28,20.40
2016,03,30,14,29,20.40
2016,03,30,14,30,20.40
2016,03,30,14,31,20.40
2016,03,30,14,32,20.30
2016,03,30,14,33,20.10
2016,03,30,14,34,20.10
2016,03,30,14,35,20.10
2016,03,30,14,36,20.20
2016,03,30,14,37,20.20
2016,03,30,14,38,20.30
2016,03,30,14,39,20.30
2016,03,30,14,40,20.40
2016,03,30,14,41,20.40
2016,03,30,14,42,20.40
2016,03,30,14,43,20.40
2016,03,30,14,44,20.40
2016,03,30,14,45,20.40
2016,03,30,14,46,20.30
2016,03,30,14,47,20.20
2016,03,30,14,48,20.10
2016,03,30,14,49,19.90
2016,03,30,14,50,19.80
2016,03,30,14,51,19.80
2016,03,30,14,52,19.70
2016,03,30,14,53,19.70
2016,03,30,14,54,19.70
2016,03,30,14,55,19.70
2016,03,30,14,56,19.70
2016,03,30,14,57,19.80
2016,03,30,14,58,19.80
2016,03,30,14,59,19.90
2016,03,30,15,00,19.90
2016,03,30,15,01,20.00
2016,03,30,15,02,20.10
2016,03,30,15,03,20.20
2016,03,30,15,04,20.30
2016,03,30,15,05,20.40
2016,03,30,15,06,20.50
2016,03,30,15,07,20.60
2016,03,30,15,08,20.50
2016,03,30,15,09,20.40
2016,03,30,15,10,20.30
2016,03,30,15,11,20.20
2016,03,30,15,12,20.10
2016,03,30,15,13,20.00
2016,03,30,15,14,20.00
2016,03,30,15,15,20.00
2016,03,30,15,16,20.00
2016,03,30,15,17,20.00
2016,03,30,15,18,20.10
2016,03,30,15,19,20.10
2016,03,30,15,20,20.00
2016,03,30,15,21,19.90
2016,03,30,15,22,19.80
2016,03,30,15,23,19.80
2016,03,30,15,24,19.80
2016,03,30,15,25,19.70
2016,03,30,15,26,19.70
2016,03,30,15,27,19.80
2016,03,30,15,28,19.80
2016,03,30,15,29,19.90
2016,03,30,15,30,20.00
2016,03,30,15,31,20.10
2016,03,30,15,32,20.10
2016,03,30,15,33,20.10
2016,03,30,15,34,20.10
2016,03,30,15,35,20.10
2016,03,30,15,36,20.10
2016,03,30,15,37,20.10
2016,03,30,15,38,20.00
2016,03,30,15,39,20.00
2016,03,30,15,40,20.00
2016,03,30,15,41,19.90
2016,03,30,15,42,19.90
2016,03,30,15,43,19.90
2016,03,30,15,44,19.90
2016,03,30,15,45,19.90
2016,03,30,15,46,19.90
2016,03,30,15,47,19.90
2016,03,30,15,48,19.80
2016,03,30,15,49,19.70
2016,03,30,15,50,19.60
2016,03,30,15,51,19.50
2016,03,30,15,52,19.40
2016,03,30,15,53,19.20
2016,03,30,15,54,19.10
2016,03,30,15,55,19.00
2016,03,30,15,56,18.90
2016,03,30,15,57,18.90
2016,03,30,15,58,18.80
2016,03,30,15,59,18.80
2016,03,30,16,00,18.70
2016,03,30,16,01,18.70
2016,03,30,16,02,18.60
2016,03,30,16,03,18.50
2016,03,30,16,04,18.50
2016,03,30,16,05,18.40
2016,03,30,16,06,18.40
2016,03,30,16,07,18.30
2016,03,30,16,08,18.20
2016,03,30,16,09,18.00
2016,03,30,16,10,17.80
2016,03,30,16,11,17.50
2016,03,30,16,12,17.30
2016,03,30,16,13,17.00
2016,03,30,16,14,16.70
2016,03,30,16,15,16.60
2016,03,30,16,16,16.50
2016,03,30,16,17,16.40
2016,03,30,16,18,16.30
2016,03,30,16,19,16.20
2016,03,30,16,20,16.20
2016,03,30,16,21,16.10
2016,03,30,16,22,16.00
2016,03,30,16,23,15.90
2016,03,30,16,24,15.70
2016,03,30,16,25,15.60
2016,03,30,16,26,15.50
2016,03,30,16,27,15.40
2016,03,30,16,28,15.30
2016,03,30,16,29,15.40
2016,03,30,16,30,15.40
2016,03,30,16,31,15.40
2016,03,30,16,32,15.40
2016,03,30,16,33,15.40
2016,03,30,16,34,15.40
2016,03,30,16,35,15.40
2016,03,30,16,36,15.40
2016,03,30,16,37,15.40
2016,03,30,16,38,15.40
2016,03,30,16,39,15.50
2016,03,30,16,40,15.60
2016,03,30,16,41,15.70
2016,03,30,16,42,15.80
2016,03,30,16,43,16.00
2016,03,30,16,44,16.10
2016,03,30,16,45,16.20
2016,03,30,16,46,16.30
2016,03,30,16,47,16.40
2016,03,30,16,48,16.40
2016,03,30,16,49,16.50
2016,03,30,16,50,16.50
2016,03,30,16,51,16.60
2016,03,30,16,52,16.60
2016,03,30,16,53,16.70
2016,03,30,16,54,16.70
2016,03,30,16,55,16.80
2016,03,30,16,56,16.90
2016,03,30,16,57,17.00
2016,03,30,16,58,17.10
2016,03,30,16,59,17.10
2016,03,30,17,00,17.20
2016,03,30,17,01,17.30
2016,03,30,17,02,17.40
2016,03,30,17,03,17.40
2016,03,30,17,04,17.40
2016,03,30,17,05,17.40
2016,03,30,17,06,17.40
2016,03,30,17,07,17.40
2016,03,30,17,08,17.30
2016,03,30,17,09,17.20
2016,03,30,17,10,17.20
2016,03,30,17,11,17.10
2016,03,30,17,12,17.10
2016,03,30,17,13,17.00
2016,03,30,17,14,16.90
2016,03,30,17,15,16.90
2016,03,30,17,16,16.80
2016,03,30,17,17,16.60
2016,03,30,17,18,16.40
2016,03,30,17,19,16.20
2016,03,30,17,20,16.00
2016,03,30,17,21,15.90
2016,03,30,17,22,15.80
2016,03,30,17,23,15.70
2016,03,30,17,24,15.60
2016,03,30,17,25,15.50
2016,03,30,17,26,15.40
2016,03,30,17,27,15.10
2016,03,30,17,28,15.00
2016,03,30,17,29,15.00
2016,03,30,17,30,14.90
2016,03,30,17,31,14.80
2016,03,30,17,32,14.60
2016,03,30,17,33,14.50
2016,03,30,17,34,14.50
2016,03,30,17,35,14.50
2016,03,30,17,36,14.60
2016,03,30,17,37,14.70
2016,03,30,17,38,14.80
2016,03,30,17,39,15.00
2016,03,30,17,40,15.00
2016,03,30,17,41,15.00
2016,03,30,17,42,15.00